User: anonymous   Login
Location: Unspecified
(0.0000°N, 0.0000°E)
Time: 19:30:50
(UTC+00:00)
Language:

DMSP B5D2-7 - Orbit

View from above orbital plane
View from above orbital plane
View from above satellite
View from above satellite

Ground track
Ground track

The orbit data is extracted from the following two-line orbital elements,

1 23233U 94057A   19083.58459251 -.00000045  00000-0  31031-6 0  9992
2 23233  99.0404 111.1965 0010433 233.2614 126.7601 14.15661652268429
Epoch (UTC): 24 March 2019 14:01:48
Eccentricity: 0.0010433
inclination: 99.0404°
perigee height: 832 km
apogee height: 847 km
right ascension of ascending node: 111.1965°
argument of perigee: 233.2614°
revolutions per day: 14.15661652
mean anomaly at epoch: 126.7601°
orbit number at epoch: 26842

The dashed part of the orbit path shows where the satellite is in the earth's shadow,  

DLR